Charlottesville, VA

11:37 AM EST on November 18, 2019 (GMT -0500)
Charlottesville-Albemarle

Weather History for KCHO - October, 2019

Change the Weather History Date:

Monday, October 21, 2019

  Actual Average Record
Temperature  
Mean Temperature 57 °F 54 °F  
Max Temperature 66 °F 66 °F 86 °F (1953)
Min Temperature 47 °F 43 °F 27 °F (1952)
Degree Days  
Heating Degree Days 8 11  
Month to date heating degree days 90 168  
Since 1 July heating degree days 90 226  
Cooling Degree Days 0 0  
Month to date cooling degree days 66 12  
Year to date cooling degree days 1838 1033  
Growing Degree Days 7 (Base 50)    
Moisture  
Dew Point 50 °F    
Average Humidity 83    
Maximum Humidity 94    
Minimum Humidity 61    
Precipitation  
Precipitation 0.00 in 0.10 in 0.21 in (2005)
Month to date precipitation 2.67 2.18  
Year to date precipitation 31.06 34.80  
Sea Level Pressure  
Sea Level Pressure 30.04 in    
Wind  
Wind Speed 1 mph ()    
Max Wind Speed 9 mph    
Max Gust Speed 12 mph    
Visibility 4.8 miles    
Events Fog    
T = Trace of Precipitation, MM = Missing Value Source: Averaged Metar Reports

Daily Weather History Graph

Daily Weather History Graph

Search for Another Location

Airport or City:

Astronomy

Oct. 21, 2019 Rise Set
Actual Time 7:28 AM EDT 6:28 PM EDT
Civil Twilight 7:01 AM EDT 6:54 PM EDT
Nautical Twilight 6:30 AM EDT 7:25 PM EDT
Astronomical Twilight 6:00 AM EDT 7:56 PM EDT
Moon No Moon Rise 2:41 PM EDT (10/21)
Length of Visible Light 11h 53m
Length of Day
10h 59m
Waning Gibbous, 48% of the Moon is Illuminated
Oct 21
Waning Gibbous
Oct 27
New
Nov 4
First Quarter
Nov 12
Full
Nov 19
Last Quarter

Hourly Weather History & Observations

Time (EDT) Temp. Dew Point Humidity Pressure Visibility Wind Dir Wind Speed Gust Speed Precip Events Conditions
12:11 AM 55.9 °F 52.0 °F 87% 29.98 in 4.0 mi Calm Calm - N/A   Clear
12:26 AM 55.0 °F 52.0 °F 89% 29.99 in 2.5 mi Calm Calm - N/A   Clear
12:34 AM 55.0 °F 51.1 °F 86% 29.99 in 9.0 mi Calm Calm - N/A   Clear
12:44 AM 55.0 °F 52.0 °F 89% 29.99 in 1.2 mi Calm Calm - N/A   Clear
12:51 AM 53.6 °F 51.8 °F 94% 29.99 in 0.5 mi Calm Calm - N/A Fog Fog
12:53 AM 54.0 °F 51.1 °F 90% 29.99 in 0.5 mi Calm Calm - N/A Fog Fog
1:53 AM 54.0 °F 51.1 °F 90% 29.99 in 1.2 mi Calm Calm - N/A   Partly Cloudy
2:09 AM 54.0 °F 50.0 °F 86% 30.00 in 8.0 mi East 3.5 mph - N/A   Clear
2:24 AM 54.0 °F 51.1 °F 90% 30.00 in 2.5 mi Calm Calm - N/A   Clear
2:31 AM 54.0 °F 51.1 °F 90% 30.00 in 10.0 mi Calm Calm - N/A   Clear
2:44 AM 54.0 °F 51.1 °F 90% 30.01 in 2.5 mi Calm Calm - N/A   Partly Cloudy
2:53 AM 54.0 °F 50.0 °F 86% 30.01 in 1.0 mi Calm Calm - N/A   Mist
3:00 AM 53.1 °F 50.0 °F 89% 30.01 in 0.5 mi Calm Calm - N/A Fog Fog
3:21 AM 52.0 °F 48.9 °F 89% 30.01 in 1.2 mi Calm Calm - N/A   Partly Cloudy
3:51 AM 51.8 °F 48.2 °F 88% 30.01 in 0.5 mi Calm Calm - N/A Fog Fog
3:53 AM 52.0 °F 48.0 °F 86% 30.01 in 0.5 mi Calm Calm - N/A Fog Fog
4:01 AM 53.1 °F 48.9 °F 86% 30.01 in 0.8 mi Calm Calm - N/A   Clear
4:10 AM 51.1 °F 48.0 °F 89% 30.01 in 0.5 mi Calm Calm - N/A Fog Fog
4:15 AM 51.1 °F 48.0 °F 89% 30.01 in 1.2 mi Calm Calm - N/A   Clear
4:30 AM 50.0 °F 46.9 °F 89% 30.01 in 0.5 mi Calm Calm - N/A Fog Fog
4:37 AM 51.1 °F 46.9 °F 86% 30.01 in 1.0 mi Calm Calm - N/A   Mist
4:42 AM 51.1 °F 46.9 °F 86% 30.01 in 2.0 mi Calm Calm - N/A   Partly Cloudy
4:53 AM 50.0 °F 46.9 °F 89% 30.01 in 0.8 mi Calm Calm - N/A   Clear
5:53 AM 48.9 °F 45.0 °F 86% 30.03 in 0.2 mi Calm Calm - N/A Fog Fog
6:53 AM 48.0 °F 44.1 °F 86% 30.04 in 0.2 mi North 3.5 mph - N/A Fog Fog
7:53 AM 48.0 °F 44.1 °F 86% 30.06 in 0.2 mi Calm Calm - N/A Fog Fog
8:53 AM 50.0 °F 46.9 °F 89% 30.08 in 0.2 mi NE 3.5 mph - N/A Fog Fog
9:31 AM 53.1 °F 50.0 °F 89% 30.10 in 1.0 mi NE 3.5 mph - N/A   Overcast
9:53 AM 53.1 °F 50.0 °F 89% 30.10 in 1.0 mi North 3.5 mph - N/A   Overcast
10:53 AM 54.0 °F 51.1 °F 90% 30.12 in 1.0 mi Variable 3.5 mph - N/A   Overcast
11:31 AM 55.9 °F 51.1 °F 84% 30.13 in 1.0 mi NE 5.8 mph - N/A   Haze
11:53 AM 55.9 °F 50.0 °F 80% 30.13 in 4.0 mi North 4.6 mph - N/A   Overcast
12:43 PM 59.0 °F 50.0 °F 72% 30.11 in 10.0 mi Variable 3.5 mph - N/A   Overcast
12:53 PM 59.0 °F 50.0 °F 72% 30.12 in 10.0 mi Calm Calm - N/A   Overcast
1:32 PM 60.1 °F 50.0 °F 69% 30.10 in 10.0 mi Calm Calm - N/A   Mostly Cloudy
1:45 PM 61.0 °F 50.0 °F 67% 30.09 in 10.0 mi ESE 5.8 mph - N/A   Scattered Clouds
1:53 PM 62.1 °F 51.1 °F 67% 30.08 in 10.0 mi NNE 5.8 mph - N/A   Mostly Cloudy
2:24 PM 61.0 °F 51.1 °F 70% 30.07 in 10.0 mi Calm Calm - N/A   Partly Cloudy
2:53 PM 63.0 °F 51.1 °F 65% 30.06 in 10.0 mi East 3.5 mph - N/A   Clear
3:53 PM 64.9 °F 51.1 °F 61% 30.04 in 10.0 mi Calm Calm - N/A   Clear
4:53 PM 64.9 °F 52.0 °F 63% 30.04 in 10.0 mi Calm Calm - N/A   Clear
5:53 PM 63.0 °F 52.0 °F 67% 30.04 in 10.0 mi Calm Calm - N/A   Clear
6:53 PM 61.0 °F 52.0 °F 72% 30.04 in 10.0 mi SSE 5.8 mph - N/A   Clear
7:53 PM 57.9 °F 52.0 °F 81% 30.07 in 10.0 mi South 5.8 mph - N/A   Clear
8:53 PM 57.0 °F 52.0 °F 83% 30.06 in 10.0 mi SSE 3.5 mph - N/A   Mostly Cloudy
9:53 PM 57.0 °F 51.1 °F 81% 30.06 in 10.0 mi SSE 5.8 mph - N/A   Overcast
10:53 PM 55.9 °F 51.1 °F 84% 30.07 in 10.0 mi South 6.9 mph - N/A   Overcast
11:40 PM 55.9 °F 51.1 °F 84% 30.07 in 10.0 mi SSW 4.6 mph - N/A   Overcast
11:49 PM 55.4 °F 51.8 °F 88% 30.07 in 10.0 mi SSW 3.5 mph - N/A   Overcast
11:53 PM 55.9 °F 51.1 °F 84% 30.07 in 10.0 mi SSW 3.5 mph - N/A   Overcast